Location: North Evanston
(42.0634°N, 87.6976°W)
Time: 13:57:51
(UTC+00:00)

Vanguard 3 - Pass Details

Date: 15 May 2026
Orbit: 507 x 3204 km, 33.3° (Epoch: 6 June)

Event Time Altitude Azimuth Distance (km) Brightness Sun altitude
Rises 16:23:08 0° 192° (SSW) 5,945 11.8 60.8°
Reaches altitude 10° 16:28:04 10° 179° (S) 5,328 11.8 61.5°
Maximum altitude 16:39:41 23° 135° (SE) 4,912 12.0 62.8°
Drops below altitude 10° 16:52:44 10° 92° (E) 6,112 12.0 64.2°
Sets 16:58:53 0° 81° (E) 7,014 12.0 64.8°
